Tracking 26303 objects as of 1-Dec-2022
HD Live streaming from Space Station
objects crossing your sky now

MOLNIYA 3-41

Track MOLNIYA 3-41 now!
MOLNIYA 3-41 is classified as:


NORAD ID: 21706
Int'l Code: 1991-065A
Perigee: 1,747.1 km
Apogee: 37,975.3 km
Inclination: 64.1 °
Period: 704.7 minutes
Semi major axis: 26232 km
RCS: 14.2786 m2 (large)
Launch date: September 17, 1991
Source: Commonwealth of Independent States (former USSR) (CIS)
Launch site: PLESETSK MISSILE AND SPACE COMPLEX (PKMTR)
aabbcc
Your satellite tracking list
Your tracking list is empty




NASA's NSSDC Master Catalog

Two Line Element Set (TLE):
1 21706U 91065A   22334.78120304  .00001009  00000-0  00000-0 0  9996
2 21706  64.0929 147.6822 6905299 254.3373  25.0577  2.04338862230260
Source of the keplerian elements: AFSPC